| time (UTC) | temp F | wind direction | speed MPH | gust MPH | rain 1hr in | rain 24hr in | rain mn in | humidity % | barometer mb |
| 20260509192006 | 69 | 220 | 0.0 | 4.0 | 0.00 | 0.00 | 0.00 | 79 | 1009.1 |
| 20260509191509 | 69 | 228 | 0.0 | 8.0 | 0.00 | 0.00 | 0.00 | 79 | 1009.2 |
| 20260509191104 | 68 | 206 | 0.0 | 9.0 | 0.00 | 0.00 | 0.00 | 77 | 1009.2 |
| 20260509190502 | 68 | 172 | 1.0 | 9.0 | 0.00 | 0.00 | 0.00 | 77 | 1009.3 |
| 20260509190008 | 68 | 188 | 0.0 | 2.0 | 0.00 | 0.00 | 0.00 | 78 | 1009.3 |
| 20260509185604 | 68 | 188 | 0.0 | 2.0 | 0.00 | 0.00 | 0.00 | 78 | 1009.4 |
| 20260509185004 | 67 | 174 | 0.0 | 4.0 | 0.00 | 0.00 | 0.00 | 77 | 1009.3 |
| 20260509184512 | 68 | 176 | 0.0 | 4.0 | 0.00 | 0.00 | 0.00 | 76 | 1009.4 |
| 20260509184102 | 68 | 181 | 0.0 | 1.0 | 0.00 | 0.00 | 0.00 | 78 | 1009.4 |
| 20260509183502 | 68 | 247 | 0.0 | 5.0 | 0.00 | 0.00 | 0.00 | 78 | 1009.2 |
| 20260509183013 | 68 | 166 | 0.0 | 5.0 | 0.00 | 0.00 | 0.00 | 76 | 1009.2 |
| 20260509182603 | 68 | 190 | 0.0 | 2.0 | 0.00 | 0.00 | 0.00 | 78 | 1009.3 |
| 20260509182003 | 68 | 190 | 0.0 | 2.0 | 0.00 | 0.00 | 0.00 | 75 | 1009.6 |
| 20260509181508 | 68 | 242 | 0.0 | 1.0 | 0.00 | 0.00 | 0.00 | 75 | 1009.6 |
| 20260509181103 | 68 | 202 | 0.0 | 3.0 | 0.00 | 0.00 | 0.00 | 75 | 1009.6 |
| 20260509180503 | 68 | 202 | 0.0 | 7.0 | 0.00 | 0.00 | 0.00 | 74 | 1009.7 |
| 20260509180009 | 69 | 153 | 0.0 | 7.0 | 0.00 | 0.00 | 0.00 | 73 | 1009.7 |
| 20260509175603 | 69 | 221 | 2.0 | 7.0 | 0.00 | 0.00 | 0.00 | 74 | 1009.8 |
| 20260509175002 | 69 | 181 | 1.0 | 5.0 | 0.00 | 0.00 | 0.00 | 73 | 1009.8 |
| 20260509174511 | 69 | 158 | 1.0 | 3.0 | 0.00 | 0.00 | 0.00 | 73 | 1009.8 |
| 20260509174101 | 69 | 187 | 0.0 | 8.0 | 0.00 | 0.00 | 0.00 | 74 | 1009.7 |
| 20260509173502 | 69 | 203 | 2.0 | 11.0 | 0.00 | 0.00 | 0.00 | 74 | 1009.9 |
| 20260509173008 | 69 | 191 | 1.0 | 11.0 | 0.00 | 0.00 | 0.00 | 72 | 1009.8 |
| 20260509172603 | 69 | 290 | 2.0 | 11.0 | 0.00 | 0.00 | 0.00 | 74 | 1009.8 |
| 20260509172002 | 69 | 161 | 4.0 | 7.0 | 0.00 | 0.00 | 0.00 | 72 | 1009.8 |
| 20260509171509 | 69 | 172 | 2.0 | 7.0 | 0.00 | 0.00 | 0.00 | 73 | 1009.9 |
| 20260509171104 | 69 | 167 | 2.0 | 7.0 | 0.00 | 0.00 | 0.00 | 73 | 1009.9 |
| 20260509170504 | 69 | 174 | 1.0 | 6.0 | 0.00 | 0.00 | 0.00 | 75 | 1010.0 |
| 20260509170008 | 69 | 173 | 0.0 | 11.0 | 0.00 | 0.00 | 0.00 | 75 | 1009.9 |
| 20260509165603 | 69 | 278 | 2.0 | 11.0 | 0.00 | 0.00 | 0.00 | 74 | 1010.0 |
| 20260509165002 | 69 | 151 | 2.0 | 7.0 | 0.00 | 0.00 | 0.00 | 75 | 1010.2 |
| 20260509164508 | 68 | 172 | 2.0 | 7.0 | 0.00 | 0.00 | 0.00 | 76 | 1010.3 |
| 20260509164106 | 68 | 178 | 2.0 | 7.0 | 0.00 | 0.00 | 0.00 | 76 | 1010.4 |
| 20260509163506 | 68 | 152 | 3.0 | 6.0 | 0.00 | 0.00 | 0.00 | 77 | 1010.6 |
| 20260509163009 | 68 | 188 | 3.0 | 6.0 | 0.00 | 0.00 | 0.00 | 75 | 1010.7 |
| 20260509162604 | 69 | 206 | 1.0 | 6.0 | 0.00 | 0.00 | 0.00 | 74 | 1010.8 |
| 20260509162109 | 69 | 207 | 0.0 | 6.0 | 0.00 | 0.00 | 0.00 | 75 | 1010.9 |
| 20260509161509 | 69 | 200 | 1.0 | 7.0 | 0.00 | 0.00 | 0.00 | 73 | 1010.8 |
| 20260509161102 | 69 | 142 | 1.0 | 7.0 | 0.00 | 0.00 | 0.00 | 75 | 1010.8 |
| 20260509160502 | 68 | 225 | 3.0 | 10.0 | 0.00 | 0.00 | 0.00 | 76 | 1010.8 |
| 20260509160009 | 68 | 157 | 3.0 | 9.0 | 0.00 | 0.00 | 0.00 | 76 | 1010.8 |
| 20260509155604 | 68 | 176 | 3.0 | 7.0 | 0.00 | 0.00 | 0.00 | 77 | 1010.8 |
| 20260509155002 | 68 | 172 | 2.0 | 7.0 | 0.00 | 0.00 | 0.00 | 77 | 1010.8 |
| 20260509154515 | 68 | 210 | 1.0 | 6.0 | 0.00 | 0.00 | 0.00 | 80 | 1010.8 |
| 20260509154104 | 67 | 192 | 2.0 | 6.0 | 0.00 | 0.00 | 0.00 | 79 | 1010.7 |
| 20260509153504 | 67 | 169 | 1.0 | 7.0 | 0.00 | 0.00 | 0.00 | 80 | 1010.7 |
| 20260509153012 | 66 | 178 | 1.0 | 7.0 | 0.00 | 0.00 | 0.00 | 82 | 1010.7 |
| 20260509152603 | 66 | 205 | 3.0 | 6.0 | 0.00 | 0.00 | 0.00 | 83 | 1010.8 |
| 20260509152002 | 65 | 163 | 1.0 | 6.0 | 0.00 | 0.00 | 0.00 | 84 | 1010.9 |
| 20260509151509 | 64 | 200 | 2.0 | 6.0 | 0.00 | 0.00 | 0.00 | 85 | 1010.9 |
| 20260509151102 | 64 | 206 | 2.0 | 5.0 | 0.00 | 0.00 | 0.00 | 85 | 1011.0 |
| 20260509150503 | 64 | 161 | 1.0 | 4.0 | 0.00 | 0.00 | 0.00 | 87 | 1010.8 |
| 20260509150009 | 63 | 146 | 0.0 | 6.0 | 0.00 | 0.00 | 0.00 | 87 | 1010.9 |
| 20260509145603 | 63 | 182 | 0.0 | 10.0 | 0.00 | 0.00 | 0.00 | 87 | 1011.1 |
| 20260509145005 | 63 | 157 | 0.0 | 0.0 | 0.00 | 0.00 | 0.00 | 87 | 1011.0 |
| 20260509144508 | 63 | 256 | 0.0 | 4.0 | 0.00 | 0.00 | 0.00 | 87 | 1010.8 |
| 20260509144103 | 63 | 167 | 0.0 | 8.0 | 0.00 | 0.00 | 0.00 | 87 | 1010.8 |
| 20260509143502 | 62 | 178 | 1.0 | 9.0 | 0.00 | 0.00 | 0.00 | 88 | 1010.8 |
| 20260509143009 | 62 | 177 | 3.0 | 6.0 | 0.00 | 0.00 | 0.00 | 89 | 1011.0 |
| 20260509142605 | 62 | 172 | 2.0 | 6.0 | 0.00 | 0.00 | 0.00 | 89 | 1010.9 |
| 20260509142002 | 61 | 195 | 0.0 | 7.0 | 0.00 | 0.00 | 0.00 | 89 | 1011.1 |
| 20260509141510 | 61 | 202 | 1.0 | 7.0 | 0.00 | 0.00 | 0.00 | 89 | 1011.1 |
| 20260509141103 | 61 | 224 | 0.0 | 5.0 | 0.00 | 0.00 | 0.00 | 89 | 1011.1 |
| 20260509140502 | 61 | 200 | 1.0 | 4.0 | 0.00 | 0.00 | 0.00 | 89 | 1011.3 |
| 20260509140008 | 61 | 200 | 0.0 | 4.0 | 0.00 | 0.00 | 0.00 | 90 | 1011.5 |
| 20260509135603 | 60 | 184 | 1.0 | 4.0 | 0.00 | 0.00 | 0.00 | 89 | 1011.4 |
| 20260509135002 | 60 | 175 | 0.0 | 2.0 | 0.00 | 0.00 | 0.00 | 91 | 1011.3 |
| 20260509134508 | 60 | 175 | 0.0 | 5.0 | 0.00 | 0.00 | 0.00 | 90 | 1011.4 |
| 20260509134103 | 59 | 175 | 1.0 | 5.0 | 0.00 | 0.00 | 0.00 | 91 | 1011.4 |
| 20260509133503 | 59 | 174 | 0.0 | 0.0 | 0.00 | 0.00 | 0.00 | 90 | 1011.6 |
| 20260509133013 | 59 | 167 | 0.0 | 0.0 | 0.00 | 0.00 | 0.00 | 91 | 1011.8 |
| 20260509132604 | 59 | 167 | 0.0 | 4.0 | 0.00 | 0.00 | 0.00 | 91 | 1012.0 |
| 20260509132002 | 58 | 200 | 0.0 | 0.0 | 0.00 | 0.00 | 0.00 | 91 | 1012.2 |
| 20260509131509 | 58 | 200 | 0.0 | 6.0 | 0.00 | 0.00 | 0.00 | 92 | 1012.2 |
| 20260509131101 | 58 | 196 | 0.0 | 6.0 | 0.00 | 0.00 | 0.00 | 92 | 1012.2 |
| 20260509130502 | 57 | 227 | 0.0 | 0.0 | 0.00 | 0.00 | 0.00 | 93 | 1012.2 |
| 20260509130009 | 57 | 229 | 0.0 | 0.0 | 0.00 | 0.00 | 0.00 | 95 | 1012.4 |
| 20260509125602 | 56 | 202 | 0.0 | 0.0 | 0.00 | 0.00 | 0.00 | 95 | 1012.4 |
| 20260509125004 | 56 | 202 | 0.0 | 5.0 | 0.00 | 0.00 | 0.00 | 97 | 1012.3 |
| 20260509124509 | 55 | 205 | 0.0 | 5.0 | 0.00 | 0.00 | 0.00 | 97 | 1012.3 |
| 20260509124103 | 54 | 188 | 0.0 | 2.0 | 0.00 | 0.00 | 0.00 | 97 | 1012.4 |
| 20260509123503 | 53 | 183 | 0.0 | 0.0 | 0.00 | 0.00 | 0.00 | 97 | 1012.3 |
| 20260509123010 | 53 | 183 | 0.0 | 0.0 | 0.00 | 0.00 | 0.00 | 97 | 1012.2 |
| 20260509122601 | 52 | 183 | 0.0 | 1.0 | 0.00 | 0.00 | 0.00 | 97 | 1012.3 |
| 20260509122002 | 52 | 193 | 0.0 | 6.0 | 0.00 | 0.00 | 0.00 | 97 | 1012.4 |
| 20260509121508 | 51 | 193 | 0.0 | 6.0 | 0.00 | 0.00 | 0.00 | 97 | 1012.1 |
| 20260509121104 | 50 | 217 | 0.0 | 6.0 | 0.00 | 0.00 | 0.00 | 97 | 1012.1 |
| 20260509120503 | 49 | 197 | 0.0 | 0.0 | 0.00 | 0.00 | 0.00 | 97 | 1011.9 |
| 20260509120010 | 49 | 197 | 0.0 | 0.0 | 0.00 | 0.00 | 0.00 | 97 | 1012.1 |
| 20260509115602 | 48 | 197 | 0.0 | 1.0 | 0.00 | 0.00 | 0.00 | 97 | 1012.1 |
| 20260509115108 | 48 | 197 | 0.0 | 1.0 | 0.00 | 0.00 | 0.00 | 96 | 1012.3 |
| 20260509114508 | 47 | 197 | 0.0 | 0.0 | 0.00 | 0.00 | 0.00 | 96 | 1012.1 |
| 20260509114103 | 47 | 197 | 0.0 | 0.0 | 0.00 | 0.00 | 0.00 | 96 | 1011.9 |
| 20260509113503 | 46 | 197 | 0.0 | 0.0 | 0.00 | 0.00 | 0.00 | 95 | 1012.0 |
| 20260509113010 | 46 | 197 | 0.0 | 0.0 | 0.00 | 0.00 | 0.00 | 95 | 1011.9 |
| 20260509112601 | 46 | 197 | 0.0 | 0.0 | 0.00 | 0.00 | 0.00 | 95 | 1012.0 |
| 20260509112003 | 46 | 197 | 0.0 | 0.0 | 0.00 | 0.00 | 0.00 | 95 | 1012.0 |
| 20260509111508 | 46 | 197 | 0.0 | 0.0 | 0.00 | 0.00 | 0.00 | 95 | 1012.0 |
| 20260509111103 | 46 | 197 | 0.0 | 0.0 | 0.00 | 0.00 | 0.00 | 95 | 1012.0 |
| 20260509110501 | 46 | 197 | 0.0 | 0.0 | 0.00 | 0.00 | 0.00 | 95 | 1012.0 |
| 20260509110012 | 46 | 197 | 0.0 | 0.0 | 0.00 | 0.00 | 0.00 | 95 | 1012.1 |
| 20260509105602 | 46 | 197 | 0.0 | 0.0 | 0.00 | 0.00 | 0.00 | 95 | 1012.0 |
| 20260509105003 | 46 | 197 | 0.0 | 0.0 | 0.00 | 0.00 | 0.00 | 95 | 1012.0 |
| 20260509104508 | 46 | 197 | 0.0 | 0.0 | 0.00 | 0.00 | 0.00 | 95 | 1011.9 |
| 20260509104108 | 46 | 197 | 0.0 | 0.0 | 0.00 | 0.00 | 0.00 | 95 | 1011.9 |
| 20260509103502 | 46 | 197 | 0.0 | 0.0 | 0.00 | 0.00 | 0.00 | 94 | 1011.7 |
| 20260509103014 | 46 | 197 | 0.0 | 0.0 | 0.00 | 0.00 | 0.00 | 94 | 1011.5 |
| 20260509102602 | 46 | 197 | 0.0 | 0.0 | 0.00 | 0.00 | 0.00 | 94 | 1011.4 |
| 20260509102001 | 46 | 197 | 0.0 | 0.0 | 0.00 | 0.00 | 0.00 | 94 | 1011.4 |
| 20260509101509 | 46 | 197 | 0.0 | 0.0 | 0.00 | 0.00 | 0.00 | 94 | 1011.4 |
| 20260509101104 | 46 | 197 | 0.0 | 0.0 | 0.00 | 0.00 | 0.00 | 94 | 1011.3 |
| 20260509100503 | 46 | 197 | 0.0 | 0.0 | 0.00 | 0.00 | 0.00 | 94 | 1011.3 |
| 20260509100014 | 46 | 197 | 0.0 | 0.0 | 0.00 | 0.00 | 0.00 | 94 | 1011.2 |
| 20260509095607 | 46 | 197 | 0.0 | 0.0 | 0.00 | 0.00 | 0.00 | 94 | 1011.2 |
| 20260509095106 | 46 | 197 | 0.0 | 0.0 | 0.00 | 0.00 | 0.00 | 94 | 1011.1 |
| 20260509094507 | 46 | 197 | 0.0 | 0.0 | 0.00 | 0.00 | 0.00 | 94 | 1011.2 |
| 20260509094010 | 46 | 197 | 0.0 | 0.0 | 0.00 | 0.00 | 0.00 | 94 | 1011.1 |
| 20260509093605 | 46 | 197 | 0.0 | 0.0 | 0.00 | 0.00 | 0.00 | 94 | 1011.1 |
| 20260509093004 | 46 | 197 | 0.0 | 0.0 | 0.00 | 0.00 | 0.00 | 94 | 1011.2 |
| 20260509092516 | 46 | 197 | 0.0 | 0.0 | 0.00 | 0.00 | 0.00 | 94 | 1011.3 |
| 20260509092103 | 46 | 197 | 0.0 | 0.0 | 0.00 | 0.00 | 0.00 | 93 | 1011.3 |
| 20260509091504 | 46 | 197 | 0.0 | 0.0 | 0.00 | 0.00 | 0.00 | 93 | 1011.5 |
| 20260509091014 | 46 | 197 | 0.0 | 0.0 | 0.00 | 0.00 | 0.00 | 93 | 1011.7 |
| 20260509090605 | 47 | 197 | 0.0 | 0.0 | 0.00 | 0.00 | 0.00 | 93 | 1011.6 |
| 20260509090006 | 47 | 197 | 0.0 | 0.0 | 0.00 | 0.00 | 0.00 | 93 | 1011.6 |
| 20260509085509 | 47 | 197 | 0.0 | 0.0 | 0.00 | 0.00 | 0.00 | 93 | 1011.7 |
| 20260509085105 | 47 | 197 | 0.0 | 0.0 | 0.00 | 0.00 | 0.00 | 94 | 1011.7 |
| 20260509084504 | 47 | 197 | 0.0 | 0.0 | 0.00 | 0.00 | 0.00 | 93 | 1011.6 |
| 20260509084013 | 47 | 197 | 0.0 | 0.0 | 0.00 | 0.00 | 0.00 | 93 | 1011.6 |
| 20260509083605 | 47 | 197 | 0.0 | 0.0 | 0.00 | 0.00 | 0.00 | 93 | 1011.5 |
| 20260509083010 | 47 | 197 | 0.0 | 0.0 | 0.00 | 0.00 | 0.00 | 93 | 1011.6 |
| 20260509082511 | 47 | 197 | 0.0 | 0.0 | 0.00 | 0.00 | 0.00 | 93 | 1011.5 |
| 20260509082106 | 47 | 197 | 0.0 | 0.0 | 0.00 | 0.00 | 0.00 | 93 | 1011.6 |
| 20260509081511 | 47 | 197 | 0.0 | 0.0 | 0.00 | 0.00 | 0.00 | 93 | 1011.5 |
| 20260509081010 | 47 | 197 | 0.0 | 0.0 | 0.00 | 0.00 | 0.00 | 93 | 1011.6 |
| 20260509080604 | 47 | 197 | 0.0 | 0.0 | 0.00 | 0.00 | 0.00 | 93 | 1011.7 |
| 20260509080003 | 47 | 197 | 0.0 | 1.0 | 0.00 | 0.00 | 0.00 | 93 | 1011.7 |
| 20260509075510 | 47 | 197 | 0.0 | 1.0 | 0.00 | 0.00 | 0.00 | 93 | 1011.7 |
| 20260509075105 | 47 | 197 | 0.0 | 1.0 | 0.00 | 0.00 | 0.00 | 93 | 1011.8 |
| 20260509074509 | 48 | 197 | 0.0 | 1.0 | 0.00 | 0.00 | 0.00 | 92 | 1011.8 |
| 20260509074010 | 48 | 197 | 0.0 | 0.0 | 0.00 | 0.00 | 0.00 | 92 | 1012.0 |
| 20260509073604 | 48 | 197 | 0.0 | 0.0 | 0.00 | 0.00 | 0.00 | 92 | 1012.0 |
| 20260509073005 | 48 | 197 | 0.0 | 0.0 | 0.00 | 0.00 | 0.00 | 92 | 1012.1 |
| 20260509072510 | 48 | 197 | 0.0 | 0.0 | 0.00 | 0.00 | 0.00 | 92 | 1012.0 |
| 20260509072103 | 48 | 197 | 0.0 | 0.0 | 0.00 | 0.00 | 0.00 | 92 | 1012.0 |
| 20260509071504 | 48 | 197 | 0.0 | 0.0 | 0.00 | 0.00 | 0.00 | 92 | 1012.0 |
| 20260509071010 | 48 | 197 | 0.0 | 0.0 | 0.00 | 0.00 | 0.00 | 91 | 1012.1 |
| 20260509070604 | 48 | 197 | 0.0 | 0.0 | 0.00 | 0.00 | 0.00 | 91 | 1012.2 |
| 20260509070002 | 48 | 197 | 0.0 | 1.0 | 0.00 | 0.00 | 0.00 | 91 | 1012.2 |
| 20260509065509 | 49 | 197 | 0.0 | 1.0 | 0.00 | 0.00 | 0.00 | 91 | 1012.3 |
| 20260509065103 | 49 | 197 | 0.0 | 0.0 | 0.00 | 0.00 | 0.00 | 91 | 1012.3 |
| 20260509064504 | 49 | 197 | 0.0 | 0.0 | 0.00 | 0.00 | 0.00 | 90 | 1012.3 |
| 20260509064008 | 49 | 197 | 0.0 | 0.0 | 0.00 | 0.00 | 0.00 | 90 | 1012.2 |
| 20260509063605 | 49 | 197 | 0.0 | 0.0 | 0.00 | 0.00 | 0.00 | 90 | 1012.3 |
| 20260509063004 | 49 | 197 | 0.0 | 0.0 | 0.00 | 0.00 | 0.00 | 90 | 1012.4 |
| 20260509062511 | 49 | 197 | 0.0 | 0.0 | 0.00 | 0.00 | 0.00 | 90 | 1012.5 |
| 20260509062105 | 49 | 197 | 0.0 | 0.0 | 0.00 | 0.00 | 0.00 | 90 | 1012.5 |
| 20260509061504 | 49 | 197 | 0.0 | 0.0 | 0.00 | 0.00 | 0.00 | 90 | 1012.6 |
| 20260509061010 | 49 | 197 | 0.0 | 0.0 | 0.00 | 0.00 | 0.00 | 90 | 1012.6 |
| 20260509060606 | 49 | 197 | 0.0 | 0.0 | 0.00 | 0.00 | 0.00 | 90 | 1012.8 |
| 20260509060004 | 50 | 197 | 0.0 | 0.0 | 0.00 | 0.00 | 0.00 | 89 | 1012.9 |
| 20260509055510 | 50 | 197 | 0.0 | 0.0 | 0.00 | 0.00 | 0.00 | 89 | 1012.9 |
| 20260509055105 | 50 | 197 | 0.0 | 0.0 | 0.00 | 0.00 | 0.00 | 89 | 1012.9 |
| 20260509054503 | 50 | 197 | 0.0 | 0.0 | 0.00 | 0.00 | 0.00 | 89 | 1013.0 |
| 20260509054009 | 50 | 197 | 0.0 | 0.0 | 0.00 | 0.00 | 0.00 | 89 | 1013.1 |
| 20260509053604 | 50 | 197 | 0.0 | 0.0 | 0.00 | 0.00 | 0.00 | 88 | 1013.2 |
| 20260509053003 | 50 | 197 | 0.0 | 0.0 | 0.00 | 0.00 | 0.00 | 88 | 1013.3 |
| 20260509052509 | 50 | 197 | 0.0 | 0.0 | 0.00 | 0.00 | 0.00 | 89 | 1013.4 |
| 20260509052104 | 50 | 197 | 0.0 | 0.0 | 0.00 | 0.00 | 0.00 | 88 | 1013.4 |
| 20260509051504 | 50 | 197 | 0.0 | 0.0 | 0.00 | 0.00 | 0.00 | 88 | 1013.5 |
| 20260509051010 | 50 | 197 | 0.0 | 0.0 | 0.00 | 0.00 | 0.00 | 88 | 1013.5 |
| 20260509050603 | 50 | 197 | 0.0 | 0.0 | 0.00 | 0.00 | 0.00 | 88 | 1013.6 |
| 20260509050006 | 51 | 197 | 0.0 | 0.0 | 0.00 | 0.00 | 0.00 | 88 | 1013.6 |
| 20260509045509 | 51 | 197 | 0.0 | 0.0 | 0.00 | 0.00 | 0.00 | 88 | 1013.7 |
| 20260509045103 | 51 | 197 | 0.0 | 0.0 | 0.00 | 0.00 | 0.00 | 88 | 1013.7 |
| 20260509044504 | 51 | 197 | 0.0 | 0.0 | 0.00 | 0.00 | 0.00 | 88 | 1013.8 |
| 20260509044012 | 51 | 197 | 0.0 | 0.0 | 0.00 | 0.00 | 0.00 | 88 | 1013.8 |
| 20260509043603 | 51 | 197 | 0.0 | 0.0 | 0.00 | 0.00 | 0.00 | 88 | 1013.8 |
| 20260509043004 | 51 | 197 | 0.0 | 0.0 | 0.00 | 0.00 | 0.00 | 88 | 1013.8 |
| 20260509042509 | 51 | 197 | 0.0 | 0.0 | 0.00 | 0.00 | 0.00 | 88 | 1013.7 |
| 20260509042103 | 51 | 197 | 0.0 | 0.0 | 0.00 | 0.00 | 0.00 | 88 | 1013.7 |
| 20260509041506 | 51 | 197 | 0.0 | 0.0 | 0.00 | 0.00 | 0.00 | 87 | 1013.7 |
| 20260509041004 | 51 | 197 | 0.0 | 0.0 | 0.00 | 0.00 | 0.00 | 87 | 1013.7 |
| 20260509040503 | 51 | 197 | 0.0 | 0.0 | 0.00 | 0.00 | 0.00 | 87 | 1013.6 |
| 20260509040011 | 51 | 197 | 0.0 | 0.0 | 0.00 | 0.00 | 0.00 | 86 | 1013.7 |
| 20260509035604 | 52 | 197 | 0.0 | 0.0 | 0.00 | 0.00 | 0.00 | 87 | 1013.7 |
| 20260509035004 | 52 | 197 | 0.0 | 0.0 | 0.00 | 0.00 | 0.00 | 87 | 1013.6 |
| 20260509034510 | 52 | 197 | 0.0 | 0.0 | 0.00 | 0.00 | 0.00 | 87 | 1013.7 |
| 20260509034104 | 52 | 197 | 0.0 | 0.0 | 0.00 | 0.00 | 0.00 | 87 | 1013.6 |
| 20260509033504 | 52 | 197 | 0.0 | 0.0 | 0.00 | 0.00 | 0.00 | 87 | 1013.7 |
| 20260509033010 | 52 | 197 | 0.0 | 0.0 | 0.00 | 0.00 | 0.00 | 87 | 1013.7 |
| 20260509032605 | 52 | 197 | 0.0 | 0.0 | 0.00 | 0.00 | 0.00 | 87 | 1013.6 |
| 20260509032004 | 52 | 197 | 0.0 | 0.0 | 0.00 | 0.00 | 0.00 | 86 | 1013.6 |
| 20260509031513 | 52 | 197 | 0.0 | 0.0 | 0.00 | 0.00 | 0.00 | 86 | 1013.5 |
| 20260509031105 | 52 | 197 | 0.0 | 0.0 | 0.00 | 0.00 | 0.00 | 86 | 1013.6 |
| 20260509030504 | 52 | 197 | 0.0 | 0.0 | 0.00 | 0.00 | 0.00 | 86 | 1013.6 |
| 20260509030014 | 52 | 197 | 0.0 | 0.0 | 0.00 | 0.00 | 0.00 | 86 | 1013.7 |
| 20260509025603 | 52 | 197 | 0.0 | 0.0 | 0.00 | 0.00 | 0.00 | 85 | 1013.9 |
| 20260509025003 | 52 | 197 | 0.0 | 0.0 | 0.00 | 0.00 | 0.00 | 85 | 1013.9 |
| 20260509024511 | 52 | 197 | 0.0 | 0.0 | 0.00 | 0.00 | 0.00 | 85 | 1013.9 |
| 20260509024104 | 53 | 197 | 0.0 | 0.0 | 0.00 | 0.00 | 0.00 | 85 | 1013.8 |
| 20260509023502 | 53 | 197 | 0.0 | 0.0 | 0.00 | 0.00 | 0.00 | 85 | 1014.0 |
| 20260509023016 | 53 | 197 | 0.0 | 0.0 | 0.00 | 0.00 | 0.00 | 85 | 1013.9 |
| 20260509022604 | 53 | 197 | 0.0 | 0.0 | 0.00 | 0.00 | 0.00 | 85 | 1014.0 |
| 20260509022004 | 53 | 197 | 0.0 | 0.0 | 0.00 | 0.00 | 0.00 | 84 | 1014.0 |
| 20260509021510 | 53 | 197 | 0.0 | 0.0 | 0.00 | 0.00 | 0.00 | 84 | 1014.0 |
| 20260509021103 | 53 | 197 | 0.0 | 0.0 | 0.00 | 0.00 | 0.00 | 83 | 1014.0 |
| 20260509020505 | 53 | 197 | 0.0 | 0.0 | 0.00 | 0.00 | 0.00 | 83 | 1014.1 |
| 20260509020012 | 53 | 197 | 0.0 | 0.0 | 0.00 | 0.00 | 0.00 | 83 | 1014.0 |
| 20260509015604 | 54 | 197 | 0.0 | 0.0 | 0.00 | 0.00 | 0.00 | 83 | 1014.0 |
| 20260509015004 | 54 | 197 | 0.0 | 0.0 | 0.00 | 0.00 | 0.00 | 82 | 1013.9 |
| 20260509014511 | 54 | 197 | 0.0 | 0.0 | 0.00 | 0.00 | 0.00 | 81 | 1013.9 |
| 20260509014105 | 54 | 197 | 0.0 | 0.0 | 0.00 | 0.00 | 0.00 | 81 | 1013.9 |
| 20260509013503 | 54 | 197 | 0.0 | 0.0 | 0.00 | 0.00 | 0.00 | 81 | 1013.9 |
| 20260509013011 | 54 | 197 | 0.0 | 0.0 | 0.00 | 0.00 | 0.00 | 82 | 1013.9 |
| 20260509012605 | 55 | 197 | 0.0 | 0.0 | 0.00 | 0.00 | 0.00 | 81 | 1013.8 |
| 20260509012003 | 55 | 197 | 0.0 | 0.0 | 0.00 | 0.00 | 0.00 | 81 | 1013.8 |
| 20260509011510 | 55 | 197 | 0.0 | 0.0 | 0.00 | 0.00 | 0.00 | 81 | 1013.6 |
| 20260509011106 | 55 | 197 | 0.0 | 0.0 | 0.00 | 0.00 | 0.00 | 81 | 1013.6 |
| 20260509010504 | 56 | 197 | 0.0 | 0.0 | 0.00 | 0.00 | 0.00 | 79 | 1013.6 |
| 20260509010014 | 56 | 197 | 0.0 | 0.0 | 0.00 | 0.00 | 0.00 | 78 | 1013.6 |
| 20260509005511 | 56 | 197 | 0.0 | 0.0 | 0.00 | 0.00 | 0.00 | 79 | 1013.5 |
| 20260509005102 | 56 | 197 | 0.0 | 0.0 | 0.00 | 0.00 | 0.00 | 78 | 1013.4 |
| 20260509004507 | 57 | 197 | 0.0 | 0.0 | 0.00 | 0.00 | 0.00 | 76 | 1013.5 |
| 20260509004011 | 57 | 197 | 0.0 | 0.0 | 0.00 | 0.00 | 0.00 | 74 | 1013.5 |
| 20260509003604 | 58 | 197 | 0.0 | 0.0 | 0.00 | 0.00 | 0.00 | 73 | 1013.5 |
| 20260509003004 | 58 | 197 | 0.0 | 0.0 | 0.00 | 0.00 | 0.00 | 72 | 1013.4 |
| 20260509002511 | 58 | 197 | 0.0 | 0.0 | 0.00 | 0.00 | 0.00 | 72 | 1013.4 |
| 20260509002103 | 59 | 197 | 0.0 | 0.0 | 0.00 | 0.00 | 0.00 | 70 | 1013.3 |
| 20260509001504 | 59 | 197 | 0.0 | 0.0 | 0.00 | 0.00 | 0.00 | 69 | 1013.1 |
| 20260509001009 | 60 | 197 | 0.0 | 0.0 | 0.00 | 0.00 | 0.00 | 67 | 1013.0 |
| 20260509000605 | 60 | 197 | 0.0 | 0.0 | 0.00 | 0.00 | 0.00 | 67 | 1013.1 |
| 20260509000003 | 61 | 197 | 0.0 | 0.0 | 0.00 | 0.00 | 0.00 | 66 | 1013.1 |
| 20260508235509 | 61 | 197 | 0.0 | 0.0 | 0.00 | 0.00 | 0.00 | 65 | 1013.0 |
| 20260508235103 | 62 | 197 | 0.0 | 0.0 | 0.00 | 0.00 | 0.00 | 65 | 1013.0 |
| 20260508234503 | 62 | 197 | 0.0 | 0.0 | 0.00 | 0.00 | 0.00 | 65 | 1013.0 |
| 20260508234010 | 62 | 197 | 0.0 | 0.0 | 0.00 | 0.00 | 0.00 | 64 | 1013.1 |
| 20260508233604 | 63 | 197 | 0.0 | 0.0 | 0.00 | 0.00 | 0.00 | 64 | 1013.0 |
| 20260508233003 | 63 | 197 | 0.0 | 0.0 | 0.00 | 0.00 | 0.00 | 62 | 1013.1 |
| 20260508232509 | 64 | 197 | 0.0 | 0.0 | 0.00 | 0.00 | 0.00 | 58 | 1013.2 |
| 20260508232102 | 64 | 197 | 0.0 | 0.0 | 0.00 | 0.00 | 0.00 | 59 | 1013.2 |
| 20260508231503 | 64 | 197 | 0.0 | 0.0 | 0.00 | 0.00 | 0.00 | 56 | 1013.4 |
| 20260508231009 | 64 | 197 | 0.0 | 0.0 | 0.00 | 0.00 | 0.00 | 55 | 1013.2 |
| 20260508230603 | 64 | 197 | 0.0 | 0.0 | 0.00 | 0.00 | 0.00 | 56 | 1013.2 |
| 20260508230004 | 65 | 197 | 0.0 | 1.0 | 0.00 | 0.00 | 0.00 | 56 | 1013.2 |
| 20260508225510 | 65 | 197 | 0.0 | 1.0 | 0.00 | 0.01 | 0.00 | 56 | 1013.2 |
| 20260508225103 | 65 | 197 | 0.0 | 3.0 | 0.00 | 0.01 | 0.00 | 51 | 1013.2 |
| 20260508224502 | 65 | 197 | 0.0 | 4.0 | 0.00 | 0.01 | 0.00 | 55 | 1013.2 |
| 20260508224009 | 65 | 188 | 1.0 | 3.0 | 0.00 | 0.01 | 0.00 | 58 | 1013.2 |
| 20260508223604 | 66 | 233 | 0.0 | 2.0 | 0.00 | 0.01 | 0.00 | 48 | 1013.2 |
| 20260508223003 | 66 | 233 | 0.0 | 1.0 | 0.00 | 0.01 | 0.00 | 52 | 1013.2 |
| 20260508222510 | 66 | 233 | 0.0 | 1.0 | 0.00 | 0.01 | 0.00 | 43 | 1013.2 |
| 20260508222106 | 66 | 233 | 0.0 | 0.0 | 0.00 | 0.01 | 0.00 | 49 | 1013.2 |
| 20260508221504 | 66 | 233 | 0.0 | 2.0 | 0.00 | 0.01 | 0.00 | 50 | 1013.2 |
| 20260508221010 | 66 | 233 | 0.0 | 2.0 | 0.00 | 0.01 | 0.00 | 47 | 1013.0 |
| 20260508220602 | 67 | 233 | 0.0 | 2.0 | 0.00 | 0.01 | 0.00 | 51 | 1013.0 |
| 20260508220002 | 67 | 233 | 0.0 | 2.0 | 0.00 | 0.01 | 0.00 | 45 | 1012.9 |
| 20260508215509 | 67 | 233 | 0.0 | 4.0 | 0.00 | 0.03 | 0.00 | 41 | 1013.0 |
| 20260508215103 | 67 | 233 | 2.0 | 4.0 | 0.00 | 0.03 | 0.00 | 37 | 1012.8 |
| 20260508214504 | 67 | 188 | 0.0 | 3.0 | 0.00 | 0.03 | 0.00 | 39 | 1013.0 |
| 20260508214009 | 68 | 188 | 0.0 | 3.0 | 0.00 | 0.03 | 0.00 | 40 | 1013.1 |
| 20260508213604 | 68 | 217 | 1.0 | 3.0 | 0.00 | 0.03 | 0.00 | 43 | 1013.3 |
| 20260508213008 | 68 | 217 | 0.0 | 3.0 | 0.00 | 0.03 | 0.00 | 47 | 1013.2 |
| 20260508212517 | 68 | 217 | 1.0 | 3.0 | 0.00 | 0.03 | 0.00 | 41 | 1013.3 |
| 20260508212103 | 69 | 217 | 0.0 | 3.0 | 0.00 | 0.03 | 0.00 | 48 | 1013.4 |
| 20260508211505 | 69 | 217 | 0.0 | 3.0 | 0.00 | 0.03 | 0.00 | 41 | 1013.2 |
| 20260508211009 | 69 | 217 | 0.0 | 4.0 | 0.00 | 0.03 | 0.00 | 37 | 1013.2 |
| 20260508210604 | 69 | 217 | 1.0 | 4.0 | 0.00 | 0.03 | 0.00 | 33 | 1013.2 |
| 20260508210007 | 70 | 205 | 1.0 | 6.0 | 0.00 | 0.03 | 0.00 | 40 | 1013.2 |
| 20260508205509 | 70 | 170 | 2.0 | 10.0 | 0.00 | 0.21 | 0.00 | 38 | 1013.3 |
| 20260508205103 | 70 | 228 | 3.0 | 10.0 | 0.00 | 0.21 | 0.00 | 37 | 1013.3 |
| 20260508204503 | 70 | 209 | 2.0 | 7.0 | 0.00 | 0.21 | 0.00 | 33 | 1013.4 |
| 20260508204009 | 70 | 215 | 3.0 | 9.0 | 0.00 | 0.21 | 0.00 | 36 | 1013.4 |
| 20260508203605 | 71 | 208 | 0.0 | 9.0 | 0.00 | 0.21 | 0.00 | 35 | 1013.5 |
| 20260508203004 | 71 | 214 | 2.0 | 9.0 | 0.00 | 0.21 | 0.00 | 35 | 1013.4 |
| 20260508202509 | 71 | 155 | 2.0 | 9.0 | 0.00 | 0.21 | 0.00 | 36 | 1013.6 |
| 20260508202103 | 71 | 195 | 3.0 | 9.0 | 0.00 | 0.21 | 0.00 | 39 | 1013.8 |
| 20260508201503 | 72 | 210 | 1.0 | 7.0 | 0.00 | 0.21 | 0.00 | 35 | 1014.0 |
| 20260508201010 | 72 | 234 | 1.0 | 6.0 | 0.00 | 0.21 | 0.00 | 42 | 1014.0 |
| 20260508200603 | 72 | 176 | 3.0 | 6.0 | 0.00 | 0.21 | 0.00 | 38 | 1014.0 |
| 20260508200003 | 72 | 159 | 1.0 | 5.0 | 0.00 | 0.21 | 0.00 | 37 | 1013.9 |
| 20260508195510 | 72 | 202 | 1.0 | 3.0 | 0.00 | 0.21 | 0.00 | 40 | 1013.9 |
| 20260508195104 | 72 | 257 | 0.0 | 3.0 | 0.00 | 0.21 | 0.00 | 34 | 1014.0 |
| 20260508194504 | 72 | 214 | 0.0 | 3.0 | 0.00 | 0.21 | 0.00 | 38 | 1014.1 |
| 20260508194009 | 72 | 214 | 1.0 | 4.0 | 0.00 | 0.21 | 0.00 | 38 | 1014.2 |
| 20260508193603 | 71 | 215 | 2.0 | 6.0 | 0.00 | 0.21 | 0.00 | 34 | 1014.1 |
| 20260508193003 | 71 | 181 | 1.0 | 5.0 | 0.00 | 0.21 | 0.00 | 37 | 1014.2 |
| 20260508192512 | 71 | 202 | 2.0 | 4.0 | 0.00 | 0.21 | 0.00 | 35 | 1014.3 |